Home   Weather   Querétaro   Past weeks

Flag for Mexico Past Weather in Querétaro, Querétaro, Mexico — Yesterday and Last 2 Weeks

Now
57 °F

Clear.


Feels Like: 57 °F
Forecast: 49 / 90 °F
Wind: 5 mph from Northwest

Location: Queretaro - Qro.

Current Time: Apr 30, 2017 at 6:03:53 am

Latest Report: Apr 30, 2017 at 4:45 am


Visibility: 6 mi

Pressure: 30.24 "Hg (24.36 "Hg at 1817m altitude)

Humidity: 21%

Dew Point: 18 °F

Location of QuerétaroLocation

Past Weather in Querétaro — Graph

°F

Querétaro Temperature Yesterday

Maximum temperature yesterday: 88 °F (at 4:48 pm)
Minimum temperature yesterday: 52 °F (at 6:45 am)
Average temperature yesterday: 72 °F

High & Low Weather Summary for the Past Weeks

 TemperatureHumidityPressure
High88 °F (Apr 29, 4:48 pm)100% (Apr 15, 7:45 am)30.45 "Hg (Apr 15, 7:45 am)
Low41 °F (Apr 19, 6:45 am)5% (Apr 26, 4:45 pm)30.04 "Hg (Apr 21, 7:45 pm)
Average66 °F40%30.21 "Hg
* Reported Apr 15 4:45 am — Apr 30 4:45 am, Querétaro, Weather by CustomWeather, © 2017

Note: Actual official high and low records may vary slightly from our data, if they occured in-between our weather recording intervals... More about our weather records

Advertising

Querétaro Weather History for the Previous 24 Hours

Scroll right to see more
 ConditionsComfort  
Time TempWeatherWind HumidityBarometerVisibility
4:45 am
Sun, Apr 30
57 °FClear.5 mph21%30.24 "Hg6 mi
3:45 am59 °FClear.7 mph21%30.22 "Hg6 mi
2:45 am63 °FClear.6 mph17%30.22 "Hg6 mi
1:45 am63 °FClear.6 mph17%30.23 "Hg7 mi
12:45 am63 °FClear.8 mph19%30.22 "Hg8 mi
11:40 pm
Sat, Apr 29
63 °FClear.6 mph24%30.21 "Hg8 mi
10:45 pm68 °FPassing clouds.12 mph21%30.20 "Hg8 mi
9:55 pm72 °FPassing clouds.12 mph14%30.19 "Hg8 mi
8:50 pm77 °FPassing clouds.12 mph39%30.16 "Hg8 mi
7:50 pm79 °FScattered clouds.12 mph7%30.11 "Hg8 mi
6:45 pm84 °FPartly sunny.14 mph7%30.09 "Hg8 mi
5:55 pm86 °FPartly sunny.17 mph6%30.09 "Hg8 mi
4:48 pm88 °FPartly sunny.21 mph5%30.09 "Hg8 mi
3:45 pm86 °FPartly sunny.23 mph7%30.11 "Hg8 mi
2:45 pm86 °FPartly sunny.17 mph9%30.14 "Hg7 mi
1:45 pm84 °FPartly sunny.14 mph8%30.16 "Hg7 mi
12:45 pm81 °FPartly sunny.29 mph8%30.18 "Hg7 mi
11:45 am81 °FScattered clouds.23 mph11%30.19 "Hg7 mi
10:45 am77 °FPartly sunny.15 mph19%30.19 "Hg7 mi
9:45 am68 °FScattered clouds.12 mph26%30.19 "Hg7 mi
8:45 am64 °FScattered clouds.8 mph30%30.18 "Hg7 mi
7:45 am52 °FScattered clouds.8 mph44%30.16 "Hg6 mi
6:45 am52 °FPassing clouds.12 mph44%30.15 "Hg7 mi
Weather by CustomWeather, © 2017

See weather overviewHow to use our weather pages